Regional Weather Roundup
Issued by NWS

Home | Current Version | Previous Version | Graphics & Text | Print | Product List | Glossary On
Versions: 1 2 3 4 5 6 7 8 9 10 11 12 13 14 15 16 17 18 19 20 21 22 23 24 25 26 27 28 29 30 31 32 33 34 35 36 37 38 39 40 41 42 43 44 45 46 47 48 49 50
422
ASUS45 KABQ 072101
RWRNM
NEW MEXICO REGIONAL WEATHER ROUNDUP
NATIONAL WEATHER SERVICE ALBUQUERQUE NM
200 PM MST WED DEC 07 2016

NOTE: "FAIR" MEANS FEW OR NO CLOUDS BELOW 12,000 FEET AGL WITH NO
       SIGNIFICANT WEATHER OR OBSTRUCTIONS TO VISION.

      THIS PRODUCT IS RELEASED AS TWO VERSIONS.  ONE VERSION NEAR
      THE TOP OF THE HOUR CONTAINING PRELIMINARY DATA FROM ALBUQUERQUE
      AND OTHER STATIONS.  A FINAL VERSION WITH ADDITIONAL DATA IS
      ISSUED ABOUT 10 MINUTES AFTER THE HOUR.

NMZ501-503-504-510>518-072200-
NORTHWEST PLATEAU/NORTHCENTRAL MOUNTAINS

CITY           SKY/WX    TMP DP  RH WIND       PRES   REMARKS
FARMINGTON     FAIR      36   5  27 W14G21    30.06F WCI  27
SANTA FE       FAIR      42  18  37 W20G25    30.01R
TAOS           CLOUDY    34  12  40 SW13G18   30.01R WCI  25

$$
NMZ402-403-502-505>509-072200-
WESTCENTRAL MOUNTAINS/SOUTHWEST MOUNTAINS

CITY           SKY/WX    TMP DP  RH WIND       PRES   REMARKS
GALLUP         FAIR      41  21  44 N5        30.04F

$$
NMZ407-409-411-412-072200-
SOUTHERN DESERTS

CITY           SKY/WX    TMP DP  RH WIND       PRES   REMARKS
DEMING         FAIR      57  34  41 W17       29.99F
HOLLOMAN AFB   FAIR      60  25  26 SW8       30.00S
T OR C         FAIR      57  22  25 SE5       29.96S

$$
NMZ519>523-072200-
CENTRAL VALLEYS/CENTRAL HIGHLANDS

CITY           SKY/WX    TMP DP  RH WIND       PRES   REMARKS
ALBUQUERQUE    PTSUNNY   44  20  38 N12       30.04R
CLINES CORNERS FAIR      40  19  43 NW25G31   30.01R WCI  29
BELEN          NOT AVBL
SOCORRO        NOT AVBL

$$
NMZ524>526-539-540-072200-
SOUTHCENTRAL MOUNTAINS

CITY           SKY/WX    TMP DP  RH WIND       PRES   REMARKS
RUIDOSO        NOT AVBL

$$
NMZ527>531-072200-
NORTHEAST HIGHLANDS/NORTHEAST PLAINS

CITY           SKY/WX    TMP DP  RH WIND       PRES   REMARKS
LAS VEGAS      FAIR      46   7  20 W8        29.95R
RATON          FAIR      31   8  38 NE17      29.98R WCI  19
CLAYTON        NOT AVBL

$$
NMZ532>537-072200-
EASTCENTRAL PLAINS

CITY           SKY/WX    TMP DP  RH WIND       PRES   REMARKS
TUCUMCARI      FAIR      41  13  31 E20       30.06R
CANNON AFB     FAIR      42  19  38 NE23      30.02R
CLOVIS AIRPORT FAIR      41  16  36 NE23      30.04R

$$
NMZ028-029-538-072200-
SOUTHEAST PLAINS

CITY           SKY/WX    TMP DP  RH WIND       PRES   REMARKS
ROSWELL        FAIR      54  33  45 E6        29.96S
ARTESIA        FAIR      45  36  70 CALM      29.98S
CARLSBAD       NOT AVBL


$$




USA.gov is the U.S. government's official web portal to all federal, state and local government web resources and services.